Location: Arbon
(43.0005°N, 0.7472°E)
Time: 12:30:11
(UTC+00:00)

Vanguard 1 - Pass Details

Date: 04 December 2020
Orbit: 648 x 3834 km, 34.3° (Epoch: 23 January)

Event Time Altitude Azimuth Distance (km) Brightness Sun altitude
Rises 05:40:08 0° 255° (WSW) 3,303 - -16.3°
Reaches altitude 10° 05:42:16 10° 248° (WSW) 2,559 - -15.9°
Exits shadow 05:42:53 14° 245° (WSW) 2,360 11.6 -15.8°
Maximum altitude 05:47:57 44° 177° (S) 1,623 11.3 -14.9°
Drops below altitude 10° 05:57:40 10° 110° (ESE) 4,332 14.9 -13.2°
Sets 06:02:25 0° 105° (ESE) 5,879 16.2 -12.4°
